Overview Statistics Trail Chart Weather Telemetry Raw packets
 

This is the latest recevied weather packets stored in our database for station/object 4S6DRJ-13. If no packets are shown the sender has not sent any weather packets the latest 10 day(s).

<< 95 96 97 98 99 100 101 >>
Time Temp. Humidity Pressure Rain* Wind** Luminosity Snow
1788312007 26.67° C 91% 1009.6 hPa 0 mm 0 m/s 57 W/m² -
1788311946 26.67° C 92% 1009.6 hPa 0 mm 0 m/s 52 W/m² -
1788311885 26.67° C 91% 1009.5 hPa 0 mm 0 m/s 49 W/m² -
1788311824 26.67° C 92% 1009.5 hPa 0 mm 0 m/s 49 W/m² -
1788311763 26.67° C 92% 1009.5 hPa 0 mm 0 m/s 51 W/m² -
1788311702 26.67° C 92% 1009.4 hPa 0 mm 0 m/s 48 W/m² -
1788311641 26.67° C 92% 1009.3 hPa 0 mm 0 m/s 43 W/m² -
1788311580 26.67° C 92% 1009.5 hPa 0 mm 0 m/s 38 W/m² -
1788311520 26.67° C 92% 1009.5 hPa 0 mm 0 m/s 37 W/m² -
1788311458 26.67° C 92% 1009.4 hPa 0 mm 0 m/s 36 W/m² -
1788311397 26.67° C 92% 1009.3 hPa 0 mm 0 m/s 35 W/m² -
1788311336 26.67° C 92% 1009.3 hPa 0 mm 0 m/s 35 W/m² -
1788311275 26.67° C 92% 1009.4 hPa 0 mm 0 m/s 35 W/m² -
1788311214 26.67° C 92% 1009.4 hPa 0 mm 0 m/s 34 W/m² -
1788311153 26.67° C 92% 1009.3 hPa 0 mm 0 m/s 33 W/m² -
1788311092 26.67° C 92% 1009.5 hPa 0 mm 0 m/s 31 W/m² -
1788311031 26.67° C 92% 1009.3 hPa 0 mm 0 m/s 29 W/m² -
1788310971 26.67° C 92% 1009.4 hPa 0 mm 0.45 m/s, 227° 27 W/m² -
1788310909 26.67° C 92% 1009.2 hPa 0 mm 0.45 m/s, 227° 26 W/m² -
1788310848 26.67° C 92% 1009.2 hPa 0 mm 0 m/s 24 W/m² -
1788310787 26.67° C 92% 1009.3 hPa 0 mm 0 m/s 23 W/m² -
1788310726 26.67° C 92% 1009.3 hPa 0 mm 0.45 m/s, 224° 21 W/m² -
1788310665 26.67° C 92% 1009.3 hPa 0 mm 0.45 m/s, 209° 20 W/m² -
1788310604 26.67° C 92% 1009.2 hPa 0 mm 1.34 m/s, 208° 19 W/m² -
1788310543 26.67° C 93% 1009.4 hPa 0 mm 0.89 m/s, 213° 18 W/m² -

* Rain latest hour (hover to see other rain measurements)
** Current wind speed in m/s (hover to see current wind gust speed)